Time,TemperatureF,DewpointF,PressureIn,WindDirection,WindDirectionDegrees,WindSpeedMPH,WindSpeedGustMPH,Humidity,HourlyPrecipIn,Conditions,Clouds,dailyrainin,SoftwareType,DateUTC
2013-03-15 00:00:00,40.3,20.6,30.08,North,360,5.0,5.0,45,0.00,,,0.00,Wunderground v.1.15,2013-03-15 04:00:00,
2013-03-15 00:02:00,40.2,20.5,30.08,North,360,4.0,5.0,45,0.00,,,0.00,Wunderground v.1.15,2013-03-15 04:02:00,
2013-03-15 00:06:00,40.0,20.3,30.08,North,360,4.0,9.0,45,0.00,,,0.00,Wunderground v.1.15,2013-03-15 04:06:00,
2013-03-15 00:12:00,39.7,20.6,30.08,North,360,5.0,5.0,46,0.00,,,0.00,Wunderground v.1.15,2013-03-15 04:12:00,
2013-03-15 00:14:00,39.7,20.6,30.08,North,360,5.0,5.0,46,0.00,,,0.00,Wunderground v.1.15,2013-03-15 04:14:00,
2013-03-15 00:18:00,39.6,20.5,30.08,North,360,5.0,5.0,46,0.00,,,0.00,Wunderground v.1.15,2013-03-15 04:18:00,
2013-03-15 00:20:00,39.5,21.9,30.08,North,360,5.0,6.0,49,0.00,,,0.00,Wunderground v.1.15,2013-03-15 04:20:00,
2013-03-15 00:22:00,39.5,20.4,30.08,North,360,5.0,6.0,46,0.00,,,0.00,Wunderground v.1.15,2013-03-15 04:22:00,
2013-03-15 00:24:00,39.5,20.4,30.09,North,360,5.0,6.0,46,0.00,,,0.00,Wunderground v.1.15,2013-03-15 04:24:00,
2013-03-15 00:28:00,39.5,20.4,30.09,North,360,4.0,6.0,46,0.00,,,0.00,Wunderground v.1.15,2013-03-15 04:28:00,
2013-03-15 00:32:00,39.7,20.6,30.09,North,360,4.0,4.0,46,0.00,,,0.00,Wunderground v.1.15,2013-03-15 04:32:00,
2013-03-15 00:34:00,39.7,20.6,30.09,North,360,4.0,4.0,46,0.00,,,0.00,Wunderground v.1.15,2013-03-15 04:34:00,
2013-03-15 00:36:00,39.7,20.6,30.09,North,360,4.0,7.0,46,0.00,,,0.00,Wunderground v.1.15,2013-03-15 04:36:00,
2013-03-15 00:38:00,39.7,20.6,30.09,North,360,4.0,7.0,46,0.00,,,0.00,Wunderground v.1.15,2013-03-15 04:38:00,
2013-03-15 00:42:00,39.7,20.6,30.09,North,360,5.0,6.0,46,0.00,,,0.00,Wunderground v.1.15,2013-03-15 04:42:00,
2013-03-15 00:44:00,39.8,20.7,30.09,North,360,5.0,6.0,46,0.00,,,0.00,Wunderground v.1.15,2013-03-15 04:44:00,
2013-03-15 00:46:00,39.9,20.8,30.09,North,360,5.0,6.0,46,0.00,,,0.00,Wunderground v.1.15,2013-03-15 04:46:00,
2013-03-15 00:48:00,39.9,20.8,30.09,North,360,5.0,6.0,46,0.00,,,0.00,Wunderground v.1.15,2013-03-15 04:48:00,
2013-03-15 00:50:00,39.9,20.8,30.09,North,360,5.0,5.0,46,0.00,,,0.00,Wunderground v.1.15,2013-03-15 04:50:00,
2013-03-15 00:54:00,39.8,20.7,30.09,North,360,5.0,7.0,46,0.00,,,0.00,Wunderground v.1.15,2013-03-15 04:54:00,
2013-03-15 00:58:00,39.7,21.1,30.09,North,360,6.0,9.0,47,0.00,,,0.00,Wunderground v.1.15,2013-03-15 04:58:00,
2013-03-15 01:00:00,39.7,21.1,30.09,North,360,6.0,6.0,47,0.00,,,0.00,Wunderground v.1.15,2013-03-15 05:00:00,
2013-03-15 01:04:00,39.6,21.0,30.08,North,360,6.0,9.0,47,0.00,,,0.00,Wunderground v.1.15,2013-03-15 05:04:00,
2013-03-15 01:06:00,39.5,20.9,30.09,North,360,6.0,9.0,47,0.00,,,0.00,Wunderground v.1.15,2013-03-15 05:06:00,
2013-03-15 01:10:00,39.5,20.9,30.09,North,360,6.0,6.0,47,0.00,,,0.00,Wunderground v.1.15,2013-03-15 05:10:00,
2013-03-15 01:12:00,39.4,21.3,30.09,North,360,6.0,6.0,48,0.00,,,0.00,Wunderground v.1.15,2013-03-15 05:12:00,
2013-03-15 01:14:00,39.4,21.3,30.08,North,360,6.0,6.0,48,0.00,,,0.00,Wunderground v.1.15,2013-03-15 05:14:00,
2013-03-15 01:16:00,39.4,20.8,30.08,North,360,6.0,6.0,47,0.00,,,0.00,Wunderground v.1.15,2013-03-15 05:16:00,
2013-03-15 01:20:00,39.4,21.3,30.08,North,360,6.0,6.0,48,0.00,,,0.00,Wunderground v.1.15,2013-03-15 05:20:00,
2013-03-15 01:24:00,39.4,21.3,30.08,North,360,7.0,7.0,48,0.00,,,0.00,Wunderground v.1.15,2013-03-15 05:24:00,
2013-03-15 01:26:00,39.4,21.3,30.08,North,360,7.0,8.0,48,0.00,,,0.00,Wunderground v.1.15,2013-03-15 05:26:00,
2013-03-15 01:30:00,39.4,21.3,30.09,North,360,8.0,8.0,48,0.00,,,0.00,Wunderground v.1.15,2013-03-15 05:30:00,
2013-03-15 01:32:00,39.4,21.3,30.08,North,360,7.0,11.0,48,0.00,,,0.00,Wunderground v.1.15,2013-03-15 05:32:00,
2013-03-15 01:34:00,39.4,21.3,30.08,North,360,8.0,11.0,48,0.00,,,0.00,Wunderground v.1.15,2013-03-15 05:34:00,
2013-03-15 01:36:00,39.4,21.3,30.08,North,360,8.0,11.0,48,0.00,,,0.00,Wunderground v.1.15,2013-03-15 05:36:00,
2013-03-15 01:40:00,39.4,21.3,30.09,North,360,8.0,8.0,48,0.00,,,0.00,Wunderground v.1.15,2013-03-15 05:40:00,
2013-03-15 01:42:00,39.3,21.2,30.09,North,360,8.0,11.0,48,0.00,,,0.00,Wunderground v.1.15,2013-03-15 05:42:00,
2013-03-15 01:44:00,39.3,21.2,30.09,North,360,8.0,11.0,48,0.00,,,0.00,Wunderground v.1.15,2013-03-15 05:44:00,
2013-03-15 01:46:00,39.2,21.1,30.09,North,360,8.0,11.0,48,0.00,,,0.00,Wunderground v.1.15,2013-03-15 05:46:00,
2013-03-15 01:48:00,39.2,21.1,30.09,North,360,8.0,11.0,48,0.00,,,0.00,Wunderground v.1.15,2013-03-15 05:48:00,
2013-03-15 01:50:00,39.2,21.1,30.09,North,360,8.0,9.0,48,0.00,,,0.00,Wunderground v.1.15,2013-03-15 05:50:00,
2013-03-15 01:54:00,39.1,21.5,30.09,North,360,8.0,10.0,49,0.00,,,0.00,Wunderground v.1.15,2013-03-15 05:54:00,
2013-03-15 01:56:00,39.2,21.6,30.09,North,360,8.0,10.0,49,0.00,,,0.00,Wunderground v.1.15,2013-03-15 05:56:00,
2013-03-15 01:58:00,39.2,21.6,30.09,North,360,8.0,10.0,49,0.00,,,0.00,Wunderground v.1.15,2013-03-15 05:58:00,
2013-03-15 02:00:00,39.2,21.6,30.09,North,360,7.0,7.0,49,0.00,,,0.00,Wunderground v.1.15,2013-03-15 06:00:00,
2013-03-15 02:02:00,39.2,21.6,30.09,North,360,6.0,7.0,49,0.00,,,0.00,Wunderground v.1.15,2013-03-15 06:02:00,
2013-03-15 02:04:00,39.1,21.5,30.09,North,360,6.0,8.0,49,0.00,,,0.00,Wunderground v.1.15,2013-03-15 06:04:00,
2013-03-15 02:06:00,39.1,21.5,30.09,North,360,6.0,10.0,49,0.00,,,0.00,Wunderground v.1.15,2013-03-15 06:06:00,
2013-03-15 02:08:00,39.1,21.5,30.09,North,360,7.0,10.0,49,0.00,,,0.00,Wunderground v.1.15,2013-03-15 06:08:00,
2013-03-15 02:12:00,39.1,21.5,30.09,North,360,8.0,8.0,49,0.00,,,0.00,Wunderground v.1.15,2013-03-15 06:12:00,
2013-03-15 02:14:00,39.1,21.5,30.09,North,360,7.0,8.0,49,0.00,,,0.00,Wunderground v.1.15,2013-03-15 06:14:00,
2013-03-15 02:18:00,39.0,21.4,30.08,North,360,6.0,10.0,49,0.00,,,0.00,Wunderground v.1.15,2013-03-15 06:18:00,
2013-03-15 02:20:00,39.0,21.4,30.08,North,360,5.0,6.0,49,0.00,,,0.00,Wunderground v.1.15,2013-03-15 06:20:00,
2013-03-15 02:22:00,38.9,21.3,30.08,North,360,5.0,6.0,49,0.00,,,0.00,Wunderground v.1.15,2013-03-15 06:22:00,
2013-03-15 02:24:00,38.9,21.3,30.09,North,360,5.0,6.0,49,0.00,,,0.00,Wunderground v.1.15,2013-03-15 06:24:00,
2013-03-15 02:26:00,38.9,21.3,30.08,North,360,5.0,6.0,49,0.00,,,0.00,Wunderground v.1.15,2013-03-15 06:26:00,
2013-03-15 02:30:00,39.0,21.4,30.08,North,360,4.0,4.0,49,0.00,,,0.00,Wunderground v.1.15,2013-03-15 06:30:00,
2013-03-15 02:34:00,39.0,21.4,30.09,North,360,3.0,5.0,49,0.00,,,0.00,Wunderground v.1.15,2013-03-15 06:34:00,
2013-03-15 02:38:00,38.9,21.3,30.09,North,360,3.0,5.0,49,0.00,,,0.00,Wunderground v.1.15,2013-03-15 06:38:00,
2013-03-15 02:40:00,38.9,21.3,30.09,North,360,4.0,4.0,49,0.00,,,0.00,Wunderground v.1.15,2013-03-15 06:40:00,
2013-03-15 02:44:00,39.0,21.4,30.09,North,360,3.0,4.0,49,0.00,,,0.00,Wunderground v.1.15,2013-03-15 06:44:00,
2013-03-15 02:46:00,39.1,21.5,30.09,North,360,3.0,4.0,49,0.00,,,0.00,Wunderground v.1.15,2013-03-15 06:46:00,
2013-03-15 02:48:00,39.1,21.5,30.08,North,360,3.0,4.0,49,0.00,,,0.00,Wunderground v.1.15,2013-03-15 06:48:00,
2013-03-15 02:50:00,39.1,21.5,30.08,North,360,3.0,6.0,49,0.00,,,0.00,Wunderground v.1.15,2013-03-15 06:50:00,
2013-03-15 02:54:00,38.9,21.3,30.08,North,360,3.0,6.0,49,0.00,,,0.00,Wunderground v.1.15,2013-03-15 06:54:00,
2013-03-15 02:56:00,38.9,21.8,30.08,North,360,3.0,6.0,50,0.00,,,0.00,Wunderground v.1.15,2013-03-15 06:56:00,
2013-03-15 03:02:00,38.8,21.7,30.08,North,360,3.0,4.0,50,0.00,,,0.00,Wunderground v.1.15,2013-03-15 07:02:00,
2013-03-15 03:06:00,38.8,21.7,30.08,North,360,2.0,4.0,50,0.00,,,0.00,Wunderground v.1.15,2013-03-15 07:06:00,
2013-03-15 03:08:00,38.7,21.6,30.08,North,360,3.0,4.0,50,0.00,,,0.00,Wunderground v.1.15,2013-03-15 07:08:00,
2013-03-15 03:10:00,38.7,21.6,30.08,North,360,2.0,3.0,50,0.00,,,0.00,Wunderground v.1.15,2013-03-15 07:10:00,
2013-03-15 03:16:00,38.6,21.5,30.08,North,360,3.0,4.0,50,0.00,,,0.00,Wunderground v.1.15,2013-03-15 07:16:00,
2013-03-15 03:18:00,38.6,21.5,30.08,North,360,3.0,4.0,50,0.00,,,0.00,Wunderground v.1.15,2013-03-15 07:18:00,
2013-03-15 03:20:00,38.6,21.5,30.08,North,360,3.0,3.0,50,0.00,,,0.00,Wunderground v.1.15,2013-03-15 07:20:00,
2013-03-15 03:24:00,38.7,21.6,30.08,North,360,3.0,3.0,50,0.00,,,0.00,Wunderground v.1.15,2013-03-15 07:24:00,
2013-03-15 03:28:00,38.6,22.0,30.08,North,360,3.0,5.0,51,0.00,,,0.00,Wunderground v.1.15,2013-03-15 07:28:00,
2013-03-15 03:30:00,38.7,22.1,30.08,North,360,3.0,3.0,51,0.00,,,0.00,Wunderground v.1.15,2013-03-15 07:30:00,
2013-03-15 03:36:00,38.6,22.0,30.08,North,360,3.0,5.0,51,0.00,,,0.00,Wunderground v.1.15,2013-03-15 07:36:00,
2013-03-15 03:38:00,38.6,22.0,30.08,North,360,3.0,5.0,51,0.00,,,0.00,Wunderground v.1.15,2013-03-15 07:38:00,
2013-03-15 03:40:00,38.5,21.9,30.08,North,360,3.0,3.0,51,0.00,,,0.00,Wunderground v.1.15,2013-03-15 07:40:00,
2013-03-15 03:46:00,38.4,21.8,30.08,North,360,3.0,5.0,51,0.00,,,0.00,Wunderground v.1.15,2013-03-15 07:46:00,
2013-03-15 03:50:00,38.4,21.8,30.08,North,360,3.0,3.0,51,0.00,,,0.00,Wunderground v.1.15,2013-03-15 07:50:00,
2013-03-15 03:52:00,38.3,21.7,30.08,North,360,3.0,4.0,51,0.00,,,0.00,Wunderground v.1.15,2013-03-15 07:52:00,
2013-03-15 03:56:00,38.2,21.6,30.08,North,360,3.0,4.0,51,0.00,,,0.00,Wunderground v.1.15,2013-03-15 07:56:00,
2013-03-15 03:58:00,38.1,22.0,30.07,North,360,3.0,4.0,52,0.00,,,0.00,Wunderground v.1.15,2013-03-15 07:58:00,
2013-03-15 04:02:00,38.0,21.9,30.08,North,360,3.0,5.0,52,0.00,,,0.00,Wunderground v.1.15,2013-03-15 08:02:00,
2013-03-15 04:04:00,37.9,21.8,30.08,North,360,4.0,5.0,52,0.00,,,0.00,Wunderground v.1.15,2013-03-15 08:04:00,
2013-03-15 04:08:00,37.9,21.8,30.08,North,360,4.0,5.0,52,0.00,,,0.00,Wunderground v.1.15,2013-03-15 08:08:00,
2013-03-15 04:10:00,37.9,21.8,30.08,North,360,4.0,4.0,52,0.00,,,0.00,Wunderground v.1.15,2013-03-15 08:10:00,
2013-03-15 04:12:00,37.9,22.3,30.08,North,360,4.0,6.0,53,0.00,,,0.00,Wunderground v.1.15,2013-03-15 08:12:00,
2013-03-15 04:14:00,37.9,22.3,30.08,North,360,4.0,6.0,53,0.00,,,0.00,Wunderground v.1.15,2013-03-15 08:14:00,
2013-03-15 04:16:00,37.9,22.3,30.08,North,360,4.0,6.0,53,0.00,,,0.00,Wunderground v.1.15,2013-03-15 08:16:00,
2013-03-15 04:22:00,37.8,22.2,30.07,North,360,4.0,6.0,53,0.00,,,0.00,Wunderground v.1.15,2013-03-15 08:22:00,
2013-03-15 04:24:00,37.8,22.2,30.07,North,360,4.0,6.0,53,0.00,,,0.00,Wunderground v.1.15,2013-03-15 08:24:00,
2013-03-15 04:28:00,37.7,22.1,30.07,North,360,4.0,9.0,53,0.00,,,0.00,Wunderground v.1.15,2013-03-15 08:28:00,
2013-03-15 04:29:00,37.6,22.0,30.07,North,360,5.0,5.0,53,0.00,,,0.00,Wunderground v.1.15,2013-03-15 08:29:00,
2013-03-15 04:34:00,37.5,21.9,30.07,North,360,5.0,5.0,53,0.00,,,0.00,Wunderground v.1.15,2013-03-15 08:34:00,
2013-03-15 04:36:00,37.6,22.0,30.07,North,360,5.0,6.0,53,0.00,,,0.00,Wunderground v.1.15,2013-03-15 08:36:00,
2013-03-15 04:40:00,37.5,21.9,30.07,North,360,5.0,5.0,53,0.00,,,0.00,Wunderground v.1.15,2013-03-15 08:40:00,
2013-03-15 04:42:00,37.5,21.9,30.07,North,360,5.0,5.0,53,0.00,,,0.00,Wunderground v.1.15,2013-03-15 08:42:00,
2013-03-15 04:44:00,37.5,21.9,30.07,North,360,5.0,7.0,53,0.00,,,0.00,Wunderground v.1.15,2013-03-15 08:44:00,
2013-03-15 04:48:00,37.5,21.9,30.07,North,360,5.0,7.0,53,0.00,,,0.00,Wunderground v.1.15,2013-03-15 08:48:00,
2013-03-15 04:50:00,37.5,21.9,30.06,North,360,5.0,5.0,53,0.00,,,0.00,Wunderground v.1.15,2013-03-15 08:50:00,
2013-03-15 04:56:00,37.5,21.9,30.07,North,360,5.0,6.0,53,0.00,,,0.00,Wunderground v.1.15,2013-03-15 08:56:00,
2013-03-15 04:58:00,37.4,21.8,30.07,North,360,5.0,6.0,53,0.00,,,0.00,Wunderground v.1.15,2013-03-15 08:58:00,
2013-03-15 05:02:00,37.3,22.2,30.07,North,360,5.0,5.0,54,0.00,,,0.00,Wunderground v.1.15,2013-03-15 09:02:00,
2013-03-15 05:04:00,37.3,22.2,30.07,North,360,5.0,5.0,54,0.00,,,0.00,Wunderground v.1.15,2013-03-15 09:04:00,
2013-03-15 05:06:00,37.3,22.2,30.07,North,360,5.0,6.0,54,0.00,,,0.00,Wunderground v.1.15,2013-03-15 09:06:00,
2013-03-15 05:08:00,37.3,22.2,30.07,North,360,5.0,6.0,54,0.00,,,0.00,Wunderground v.1.15,2013-03-15 09:08:00,
2013-03-15 05:10:00,37.4,22.3,30.07,North,360,5.0,5.0,54,0.00,,,0.00,Wunderground v.1.15,2013-03-15 09:10:00,
2013-03-15 05:14:00,37.5,22.3,30.07,North,360,5.0,5.0,54,0.00,,,0.00,Wunderground v.1.15,2013-03-15 09:14:00,
2013-03-15 05:16:00,37.6,22.4,30.07,North,360,5.0,5.0,54,0.00,,,0.00,Wunderground v.1.15,2013-03-15 09:16:00,
2013-03-15 05:18:00,37.6,22.4,30.07,North,360,4.0,5.0,54,0.00,,,0.00,Wunderground v.1.15,2013-03-15 09:18:00,
2013-03-15 05:20:00,37.7,22.5,30.07,North,360,4.0,6.0,54,0.00,,,0.00,Wunderground v.1.15,2013-03-15 09:20:00,
2013-03-15 05:22:00,37.7,22.5,30.07,North,360,4.0,6.0,54,0.00,,,0.00,Wunderground v.1.15,2013-03-15 09:22:00,
2013-03-15 05:24:00,37.7,22.5,30.07,North,360,4.0,6.0,54,0.00,,,0.00,Wunderground v.1.15,2013-03-15 09:24:00,
2013-03-15 05:26:00,37.8,22.6,30.07,North,360,4.0,6.0,54,0.00,,,0.00,Wunderground v.1.15,2013-03-15 09:26:00,
2013-03-15 05:28:00,37.8,22.6,30.07,North,360,3.0,6.0,54,0.00,,,0.00,Wunderground v.1.15,2013-03-15 09:28:00,
2013-03-15 05:34:00,37.9,22.3,30.07,North,360,4.0,7.0,53,0.00,,,0.00,Wunderground v.1.15,2013-03-15 09:34:00,
2013-03-15 05:36:00,37.9,22.3,30.07,North,360,5.0,7.0,53,0.00,,,0.00,Wunderground v.1.15,2013-03-15 09:36:00,
2013-03-15 05:40:00,37.9,22.3,30.07,North,360,5.0,5.0,53,0.00,,,0.00,Wunderground v.1.15,2013-03-15 09:40:00,
2013-03-15 05:46:00,37.9,22.3,30.07,North,360,5.0,5.0,53,0.00,,,0.00,Wunderground v.1.15,2013-03-15 09:46:00,
2013-03-15 05:48:00,37.9,22.3,30.07,North,360,5.0,5.0,53,0.00,,,0.00,Wunderground v.1.15,2013-03-15 09:48:00,
2013-03-15 05:52:00,37.9,22.3,30.07,North,360,5.0,6.0,53,0.00,,,0.00,Wunderground v.1.15,2013-03-15 09:52:00,
2013-03-15 05:54:00,38.0,22.4,30.07,North,360,5.0,6.0,53,0.00,,,0.00,Wunderground v.1.15,2013-03-15 09:54:00,
2013-03-15 05:58:00,38.0,22.4,30.07,North,360,5.0,6.0,53,0.00,,,0.00,Wunderground v.1.15,2013-03-15 09:58:00,
2013-03-15 06:00:00,38.1,22.9,30.07,North,360,5.0,5.0,54,0.00,,,0.00,Wunderground v.1.15,2013-03-15 10:00:00,
2013-03-15 06:06:00,38.0,22.8,30.07,North,360,3.0,7.0,54,0.00,,,0.00,Wunderground v.1.15,2013-03-15 10:06:00,
2013-03-15 06:08:00,37.9,22.7,30.07,North,360,4.0,7.0,54,0.00,,,0.00,Wunderground v.1.15,2013-03-15 10:08:00,
2013-03-15 06:10:00,37.8,22.2,30.07,North,360,4.0,4.0,53,0.00,,,0.00,Wunderground v.1.15,2013-03-15 10:10:00,
2013-03-15 06:12:00,37.7,22.1,30.07,North,360,4.0,6.0,53,0.00,,,0.00,Wunderground v.1.15,2013-03-15 10:12:00,
2013-03-15 06:14:00,37.7,22.1,30.07,North,360,4.0,6.0,53,0.00,,,0.00,Wunderground v.1.15,2013-03-15 10:14:00,
2013-03-15 06:16:00,37.7,22.1,30.07,North,360,5.0,6.0,53,0.00,,,0.00,Wunderground v.1.15,2013-03-15 10:16:00,
2013-03-15 06:18:00,37.7,22.1,30.07,North,360,4.0,6.0,53,0.00,,,0.00,Wunderground v.1.15,2013-03-15 10:18:00,
2013-03-15 06:20:00,37.8,22.2,30.07,North,360,5.0,5.0,53,0.00,,,0.00,Wunderground v.1.15,2013-03-15 10:20:00,
2013-03-15 06:22:00,37.8,22.2,30.07,North,360,4.0,5.0,53,0.00,,,0.00,Wunderground v.1.15,2013-03-15 10:22:00,
2013-03-15 06:26:00,37.8,22.2,30.07,North,360,4.0,7.0,53,0.00,,,0.00,Wunderground v.1.15,2013-03-15 10:26:00,
2013-03-15 06:28:00,37.8,22.2,30.07,North,360,5.0,7.0,53,0.00,,,0.00,Wunderground v.1.15,2013-03-15 10:28:00,
2013-03-15 06:32:00,37.8,22.2,30.07,North,360,6.0,7.0,53,0.00,,,0.00,Wunderground v.1.15,2013-03-15 10:32:00,
2013-03-15 06:34:00,37.8,22.2,30.07,North,360,6.0,7.0,53,0.00,,,0.00,Wunderground v.1.15,2013-03-15 10:34:00,
2013-03-15 06:36:00,37.8,22.2,30.07,North,360,7.0,7.0,53,0.00,,,0.00,Wunderground v.1.15,2013-03-15 10:36:00,
2013-03-15 06:40:00,37.7,22.1,30.07,North,360,5.0,5.0,53,0.00,,,0.00,Wunderground v.1.15,2013-03-15 10:40:00,
2013-03-15 06:42:00,37.6,22.0,30.07,North,360,4.0,5.0,53,0.00,,,0.00,Wunderground v.1.15,2013-03-15 10:42:00,
2013-03-15 06:46:00,37.5,21.9,30.07,North,360,4.0,6.0,53,0.00,,,0.00,Wunderground v.1.15,2013-03-15 10:46:00,
2013-03-15 06:48:00,37.5,21.9,30.07,North,360,4.0,6.0,53,0.00,,,0.00,Wunderground v.1.15,2013-03-15 10:48:00,
2013-03-15 06:50:00,37.5,21.9,30.07,North,360,5.0,5.0,53,0.00,,,0.00,Wunderground v.1.15,2013-03-15 10:50:00,
2013-03-15 06:52:00,37.5,21.9,30.07,North,360,5.0,5.0,53,0.00,,,0.00,Wunderground v.1.15,2013-03-15 10:52:00,
2013-03-15 06:54:00,37.5,21.9,30.07,North,360,5.0,5.0,53,0.00,,,0.00,Wunderground v.1.15,2013-03-15 10:54:00,
2013-03-15 06:58:00,37.5,21.9,30.07,North,360,6.0,7.0,53,0.00,,,0.00,Wunderground v.1.15,2013-03-15 10:58:00,
2013-03-15 07:00:00,37.5,21.9,30.07,North,360,5.0,5.0,53,0.00,,,0.00,Wunderground v.1.15,2013-03-15 11:00:00,
2013-03-15 07:04:00,37.5,21.9,30.07,North,360,5.0,5.0,53,0.00,,,0.00,Wunderground v.1.15,2013-03-15 11:04:00,
2013-03-15 07:06:00,37.6,22.0,30.07,North,360,4.0,5.0,53,0.00,,,0.00,Wunderground v.1.15,2013-03-15 11:06:00,
2013-03-15 07:12:00,37.6,22.0,30.07,North,360,3.0,6.0,53,0.00,,,0.00,Wunderground v.1.15,2013-03-15 11:12:00,
2013-03-15 07:14:00,37.6,22.0,30.07,North,360,3.0,6.0,53,0.00,,,0.00,Wunderground v.1.15,2013-03-15 11:14:00,
2013-03-15 07:16:00,37.6,22.0,30.07,North,360,4.0,6.0,53,0.00,,,0.00,Wunderground v.1.15,2013-03-15 11:16:00,
2013-03-15 07:18:00,37.7,22.1,30.07,North,360,4.0,6.0,53,0.00,,,0.00,Wunderground v.1.15,2013-03-15 11:18:00,
2013-03-15 07:22:00,37.8,22.2,30.07,North,360,5.0,5.0,53,0.00,,,0.00,Wunderground v.1.15,2013-03-15 11:22:00,
2013-03-15 07:24:00,37.9,22.3,30.07,North,360,4.0,6.0,53,0.00,,,0.00,Wunderground v.1.15,2013-03-15 11:24:00,
2013-03-15 07:28:00,37.9,21.8,30.07,North,360,5.0,6.0,52,0.00,,,0.00,Wunderground v.1.15,2013-03-15 11:28:00,
2013-03-15 07:30:00,37.9,21.4,30.07,North,360,5.0,6.0,51,0.00,,,0.00,Wunderground v.1.15,2013-03-15 11:30:00,
2013-03-15 07:34:00,37.9,21.8,30.07,North,360,6.0,6.0,52,0.00,,,0.00,Wunderground v.1.15,2013-03-15 11:34:00,
2013-03-15 07:36:00,37.8,21.7,30.07,North,360,6.0,9.0,52,0.00,,,0.00,Wunderground v.1.15,2013-03-15 11:36:00,
2013-03-15 07:38:00,37.9,21.8,30.07,North,360,6.0,9.0,52,0.00,,,0.00,Wunderground v.1.15,2013-03-15 11:38:00,
2013-03-15 07:42:00,37.9,21.8,30.07,North,360,6.0,11.0,52,0.00,,,0.00,Wunderground v.1.15,2013-03-15 11:42:00,
2013-03-15 07:44:00,38.0,21.9,30.07,North,360,6.0,11.0,52,0.00,,,0.00,Wunderground v.1.15,2013-03-15 11:44:00,
2013-03-15 07:46:00,38.0,21.9,30.07,North,360,6.0,11.0,52,0.00,,,0.00,Wunderground v.1.15,2013-03-15 11:46:00,
2013-03-15 07:48:00,38.0,21.9,30.07,North,360,5.0,11.0,52,0.00,,,0.00,Wunderground v.1.15,2013-03-15 11:48:00,
2013-03-15 07:54:00,38.0,21.9,30.07,North,360,4.0,6.0,52,0.00,,,0.00,Wunderground v.1.15,2013-03-15 11:54:00,
2013-03-15 07:56:00,38.0,21.5,30.07,North,360,4.0,7.0,51,0.00,,,0.00,Wunderground v.1.15,2013-03-15 11:56:00,
2013-03-15 08:00:00,38.0,21.5,30.07,North,360,5.0,5.0,51,0.00,,,0.00,Wunderground v.1.15,2013-03-15 12:00:00,
2013-03-15 08:02:00,38.0,21.5,30.07,North,360,5.0,5.0,51,0.00,,,0.00,Wunderground v.1.15,2013-03-15 12:02:00,
2013-03-15 08:04:00,38.1,21.5,30.07,North,360,5.0,5.0,51,0.00,,,0.00,Wunderground v.1.15,2013-03-15 12:04:00,
2013-03-15 08:06:00,38.2,21.6,30.07,North,360,5.0,5.0,51,0.00,,,0.00,Wunderground v.1.15,2013-03-15 12:06:00,
2013-03-15 08:08:00,38.2,21.6,30.07,North,360,5.0,5.0,51,0.00,,,0.00,Wunderground v.1.15,2013-03-15 12:08:00,
2013-03-15 08:12:00,38.5,21.9,30.06,North,360,4.0,5.0,51,0.00,,,0.00,Wunderground v.1.15,2013-03-15 12:12:00,
2013-03-15 08:14:00,38.6,22.0,30.06,North,360,4.0,5.0,51,0.00,,,0.00,Wunderground v.1.15,2013-03-15 12:14:00,
2013-03-15 08:16:00,38.7,22.1,30.06,North,360,4.0,5.0,51,0.00,,,0.00,Wunderground v.1.15,2013-03-15 12:16:00,
2013-03-15 08:18:00,38.7,22.1,30.07,North,360,4.0,5.0,51,0.00,,,0.00,Wunderground v.1.15,2013-03-15 12:18:00,
2013-03-15 08:20:00,38.8,22.2,30.07,North,360,4.0,4.0,51,0.00,,,0.00,Wunderground v.1.15,2013-03-15 12:20:00,
2013-03-15 08:22:00,38.9,21.8,30.06,North,360,4.0,4.0,50,0.00,,,0.00,Wunderground v.1.15,2013-03-15 12:22:00,
2013-03-15 08:26:00,39.0,21.9,30.06,North,360,4.0,5.0,50,0.00,,,0.00,Wunderground v.1.15,2013-03-15 12:26:00,
2013-03-15 08:30:00,39.3,22.2,30.06,North,360,4.0,4.0,50,0.00,,,0.00,Wunderground v.1.15,2013-03-15 12:30:00,
2013-03-15 08:36:00,39.3,21.7,30.06,North,360,5.0,9.0,49,0.00,,,0.00,Wunderground v.1.15,2013-03-15 12:36:00,
2013-03-15 08:38:00,39.4,21.8,30.06,North,360,5.0,9.0,49,0.00,,,0.00,Wunderground v.1.15,2013-03-15 12:38:00,
2013-03-15 08:42:00,39.4,21.8,30.06,North,360,6.0,8.0,49,0.00,,,0.00,Wunderground v.1.15,2013-03-15 12:42:00,
2013-03-15 08:46:00,39.6,22.5,30.07,North,360,5.0,8.0,50,0.00,,,0.00,Wunderground v.1.15,2013-03-15 12:46:00,
2013-03-15 08:50:00,39.7,22.6,30.06,North,360,5.0,5.0,50,0.00,,,0.00,Wunderground v.1.15,2013-03-15 12:50:00,
2013-03-15 08:52:00,39.7,23.0,30.06,North,360,4.0,9.0,51,0.00,,,0.00,Wunderground v.1.15,2013-03-15 12:52:00,
2013-03-15 08:54:00,39.7,23.5,30.06,North,360,5.0,9.0,52,0.00,,,0.00,Wunderground v.1.15,2013-03-15 12:54:00,
2013-03-15 08:56:00,39.7,23.5,30.06,North,360,5.0,9.0,52,0.00,,,0.00,Wunderground v.1.15,2013-03-15 12:56:00,
2013-03-15 08:58:00,39.8,23.6,30.06,North,360,5.0,9.0,52,0.00,,,0.00,Wunderground v.1.15,2013-03-15 12:58:00,
2013-03-15 09:04:00,39.4,22.8,30.06,North,360,6.0,7.0,51,0.00,,,0.00,Wunderground v.1.15,2013-03-15 13:04:00,
2013-03-15 09:06:00,39.4,22.8,30.06,North,360,6.0,7.0,51,0.00,,,0.00,Wunderground v.1.15,2013-03-15 13:06:00,
2013-03-15 09:10:00,39.4,22.8,30.05,North,360,6.0,6.0,51,0.00,,,0.00,Wunderground v.1.15,2013-03-15 13:10:00,
2013-03-15 09:12:00,39.5,22.8,30.05,North,360,6.0,6.0,51,0.00,,,0.00,Wunderground v.1.15,2013-03-15 13:12:00,
2013-03-15 09:18:00,39.7,22.6,30.05,North,360,6.0,7.0,50,0.00,,,0.00,Wunderground v.1.15,2013-03-15 13:18:00,
2013-03-15 09:20:00,39.7,22.6,30.05,North,360,5.0,6.0,50,0.00,,,0.00,Wunderground v.1.15,2013-03-15 13:20:00,
2013-03-15 09:22:00,39.7,22.6,30.05,North,360,5.0,10.0,50,0.00,,,0.00,Wunderground v.1.15,2013-03-15 13:22:00,
2013-03-15 09:26:00,39.8,22.7,30.05,North,360,5.0,10.0,50,0.00,,,0.00,Wunderground v.1.15,2013-03-15 13:26:00,
2013-03-15 09:32:00,39.6,22.5,30.05,North,360,6.0,6.0,50,0.00,,,0.00,Wunderground v.1.15,2013-03-15 13:32:00,
2013-03-15 09:34:00,39.7,22.6,30.04,North,360,5.0,6.0,50,0.00,,,0.00,Wunderground v.1.15,2013-03-15 13:34:00,
2013-03-15 09:36:00,39.8,22.7,30.04,North,360,6.0,6.0,50,0.00,,,0.00,Wunderground v.1.15,2013-03-15 13:36:00,
2013-03-15 09:38:00,40.0,22.8,30.05,North,360,5.0,6.0,50,0.00,,,0.00,Wunderground v.1.15,2013-03-15 13:38:00,
2013-03-15 09:44:00,40.4,21.7,30.04,North,360,6.0,11.0,47,0.00,,,0.00,Wunderground v.1.15,2013-03-15 13:44:00,
2013-03-15 09:50:00,40.5,21.8,30.04,North,360,7.0,11.0,47,0.00,,,0.00,Wunderground v.1.15,2013-03-15 13:50:00,
2013-03-15 09:56:00,40.9,21.7,30.04,North,360,7.0,11.0,46,0.00,,,0.00,Wunderground v.1.15,2013-03-15 13:56:00,
2013-03-15 10:00:00,41.1,21.3,30.03,North,360,8.0,9.0,45,0.00,,,0.00,Wunderground v.1.15,2013-03-15 14:00:00,
2013-03-15 10:02:00,41.1,20.8,30.04,North,360,8.0,9.0,44,0.00,,,0.00,Wunderground v.1.15,2013-03-15 14:02:00,
2013-03-15 10:08:00,41.3,20.5,30.03,North,360,9.0,14.0,43,0.00,,,0.00,Wunderground v.1.15,2013-03-15 14:08:00,
2013-03-15 10:10:00,41.4,21.1,30.03,North,360,9.0,12.0,44,0.00,,,0.00,Wunderground v.1.15,2013-03-15 14:10:00,
2013-03-15 10:12:00,41.5,20.6,30.03,North,360,9.0,12.0,43,0.00,,,0.00,Wunderground v.1.15,2013-03-15 14:12:00,
2013-03-15 10:14:00,41.6,20.7,30.03,North,360,9.0,12.0,43,0.00,,,0.00,Wunderground v.1.15,2013-03-15 14:14:00,
2013-03-15 10:16:00,41.7,21.4,30.03,North,360,9.0,12.0,44,0.00,,,0.00,Wunderground v.1.15,2013-03-15 14:16:00,
2013-03-15 10:18:00,41.9,21.5,30.03,North,360,7.0,12.0,44,0.00,,,0.00,Wunderground v.1.15,2013-03-15 14:18:00,
2013-03-15 10:20:00,42.1,21.2,30.03,North,360,8.0,14.0,43,0.00,,,0.00,Wunderground v.1.15,2013-03-15 14:20:00,
2013-03-15 10:22:00,42.1,21.2,30.03,North,360,8.0,14.0,43,0.00,,,0.00,Wunderground v.1.15,2013-03-15 14:22:00,
2013-03-15 10:26:00,42.4,21.5,30.02,North,360,8.0,14.0,43,0.00,,,0.00,Wunderground v.1.15,2013-03-15 14:26:00,
2013-03-15 10:28:00,42.4,22.0,30.02,North,360,9.0,14.0,44,0.00,,,0.00,Wunderground v.1.15,2013-03-15 14:28:00,
2013-03-15 10:32:00,42.7,22.3,30.02,North,360,7.0,9.0,44,0.00,,,0.00,Wunderground v.1.15,2013-03-15 14:32:00,
2013-03-15 10:34:00,42.9,21.9,30.02,North,360,8.0,9.0,43,0.00,,,0.00,Wunderground v.1.15,2013-03-15 14:34:00,
2013-03-15 10:38:00,42.9,21.4,30.02,North,360,8.0,9.0,42,0.00,,,0.00,Wunderground v.1.15,2013-03-15 14:38:00,
2013-03-15 10:41:00,42.9,20.8,30.01,North,360,10.0,12.0,41,0.00,,,0.00,Wunderground v.1.15,2013-03-15 14:41:00,
2013-03-15 10:46:00,42.9,20.8,30.01,North,360,10.0,16.0,41,0.00,,,0.00,Wunderground v.1.15,2013-03-15 14:46:00,
2013-03-15 10:48:00,43.0,22.0,30.01,North,360,11.0,16.0,43,0.00,,,0.00,Wunderground v.1.15,2013-03-15 14:48:00,
2013-03-15 10:54:00,43.3,20.6,30.00,North,360,11.0,13.0,40,0.00,,,0.00,Wunderground v.1.15,2013-03-15 14:54:00,
2013-03-15 10:56:00,43.3,21.1,30.00,North,360,10.0,13.0,41,0.00,,,0.00,Wunderground v.1.15,2013-03-15 14:56:00,
2013-03-15 10:58:00,43.7,20.9,30.00,North,360,10.0,13.0,40,0.00,,,0.00,Wunderground v.1.15,2013-03-15 14:58:00,
2013-03-15 11:02:00,43.9,21.1,30.00,North,360,9.0,10.0,40,0.00,,,0.00,Wunderground v.1.15,2013-03-15 15:02:00,
2013-03-15 11:04:00,43.9,21.1,30.00,North,360,9.0,15.0,40,0.00,,,0.00,Wunderground v.1.15,2013-03-15 15:04:00,
2013-03-15 11:10:00,43.9,21.7,30.00,North,360,9.0,9.0,41,0.00,,,0.00,Wunderground v.1.15,2013-03-15 15:10:00,
2013-03-15 11:12:00,44.0,21.2,30.00,North,360,9.0,11.0,40,0.00,,,0.00,Wunderground v.1.15,2013-03-15 15:12:00,
2013-03-15 11:18:00,44.3,20.3,30.00,North,360,9.0,11.0,38,0.00,,,0.00,Wunderground v.1.15,2013-03-15 15:18:00,
2013-03-15 11:24:00,44.3,20.9,30.00,North,360,10.0,15.0,39,0.00,,,0.00,Wunderground v.1.15,2013-03-15 15:24:00,
2013-03-15 11:26:00,44.5,20.4,30.00,North,360,10.0,15.0,38,0.00,,,0.00,Wunderground v.1.15,2013-03-15 15:26:00,
2013-03-15 11:30:00,45.1,21.0,30.00,North,360,9.0,9.0,38,0.00,,,0.00,Wunderground v.1.15,2013-03-15 15:30:00,
2013-03-15 11:34:00,45.1,21.0,30.00,North,360,9.0,9.0,38,0.00,,,0.00,Wunderground v.1.15,2013-03-15 15:34:00,
2013-03-15 11:36:00,45.2,21.1,30.00,North,360,9.0,9.0,38,0.00,,,0.00,Wunderground v.1.15,2013-03-15 15:36:00,
2013-03-15 11:38:00,45.4,20.6,29.99,North,360,9.0,9.0,37,0.00,,,0.00,Wunderground v.1.15,2013-03-15 15:38:00,
2013-03-15 11:40:00,45.4,20.6,29.99,North,360,9.0,9.0,37,0.00,,,0.00,Wunderground v.1.15,2013-03-15 15:40:00,
2013-03-15 11:44:00,45.7,20.9,29.99,North,360,7.0,9.0,37,0.00,,,0.00,Wunderground v.1.15,2013-03-15 15:44:00,
2013-03-15 11:46:00,46.0,20.5,29.99,North,360,6.0,11.0,36,0.00,,,0.00,Wunderground v.1.15,2013-03-15 15:46:00,
2013-03-15 11:48:00,46.2,20.7,29.97,North,360,6.0,12.0,36,0.00,,,0.00,Wunderground v.1.15,2013-03-15 15:48:00,
2013-03-15 11:50:00,46.3,20.8,29.97,North,360,7.0,11.0,36,0.00,,,0.00,Wunderground v.1.15,2013-03-15 15:50:00,
2013-03-15 11:54:00,45.8,19.7,29.98,North,360,9.0,11.0,35,0.00,,,0.00,Wunderground v.1.15,2013-03-15 15:54:00,
2013-03-15 11:56:00,45.7,20.2,29.98,North,360,10.0,12.0,36,0.00,,,0.00,Wunderground v.1.15,2013-03-15 15:56:00,
2013-03-15 11:57:00,45.6,20.1,29.98,North,360,11.0,12.0,36,0.00,,,0.00,Wunderground v.1.15,2013-03-15 15:57:00,
2013-03-15 12:02:00,45.7,20.2,29.97,North,360,11.0,11.0,36,0.00,,,0.00,Wunderground v.1.15,2013-03-15 16:02:00,
2013-03-15 12:04:00,46.0,21.1,29.97,North,360,11.0,19.0,37,0.00,,,0.00,Wunderground v.1.15,2013-03-15 16:04:00,
2013-03-15 12:06:00,46.0,20.5,29.97,North,360,11.0,19.0,36,0.00,,,0.00,Wunderground v.1.15,2013-03-15 16:06:00,
2013-03-15 12:09:00,45.9,20.4,29.97,North,360,14.0,17.0,36,0.00,,,0.00,Wunderground v.1.15,2013-03-15 16:09:00,
2013-03-15 12:12:00,46.0,21.1,29.97,North,360,14.0,17.0,37,0.00,,,0.00,Wunderground v.1.15,2013-03-15 16:12:00,
2013-03-15 12:16:00,46.5,20.3,29.97,North,360,13.0,17.0,35,0.00,,,0.00,Wunderground v.1.15,2013-03-15 16:16:00,
2013-03-15 12:18:00,46.5,20.9,29.97,North,360,11.0,17.0,36,0.00,,,0.00,Wunderground v.1.15,2013-03-15 16:18:00,
2013-03-15 12:20:00,46.8,21.2,29.97,North,360,9.0,10.0,36,0.00,,,0.00,Wunderground v.1.15,2013-03-15 16:20:00,
2013-03-15 12:22:00,47.0,20.7,29.96,North,360,9.0,12.0,35,0.00,,,0.00,Wunderground v.1.15,2013-03-15 16:22:00,
2013-03-15 12:24:00,47.0,21.4,29.96,North,360,10.0,17.0,36,0.00,,,0.00,Wunderground v.1.15,2013-03-15 16:24:00,
2013-03-15 12:28:00,46.9,20.6,29.96,North,360,10.0,17.0,35,0.00,,,0.00,Wunderground v.1.15,2013-03-15 16:28:00,
2013-03-15 12:30:00,47.1,21.5,29.96,North,360,10.0,10.0,36,0.00,,,0.00,Wunderground v.1.15,2013-03-15 16:30:00,
2013-03-15 12:34:00,47.8,21.4,29.96,North,360,7.0,14.0,35,0.00,,,0.00,Wunderground v.1.15,2013-03-15 16:34:00,
2013-03-15 12:36:00,47.8,21.4,29.96,North,360,7.0,15.0,35,0.00,,,0.00,Wunderground v.1.15,2013-03-15 16:36:00,
2013-03-15 12:38:00,47.8,21.4,29.95,North,360,7.0,15.0,35,0.00,,,0.00,Wunderground v.1.15,2013-03-15 16:38:00,
2013-03-15 12:40:00,47.7,21.3,29.96,North,360,9.0,12.0,35,0.00,,,0.00,Wunderground v.1.15,2013-03-15 16:40:00,
2013-03-15 12:42:00,47.5,21.2,29.95,North,360,10.0,12.0,35,0.00,,,0.00,Wunderground v.1.15,2013-03-15 16:42:00,
2013-03-15 12:46:00,47.4,21.7,29.95,North,360,11.0,14.0,36,0.00,,,0.00,Wunderground v.1.15,2013-03-15 16:46:00,
2013-03-15 12:48:00,47.5,21.2,29.95,North,360,11.0,14.0,35,0.00,,,0.00,Wunderground v.1.15,2013-03-15 16:48:00,
2013-03-15 12:50:00,47.6,21.3,29.95,North,360,11.0,11.0,35,0.00,,,0.00,Wunderground v.1.15,2013-03-15 16:50:00,
2013-03-15 12:56:00,47.9,21.5,29.94,North,360,10.0,11.0,35,0.00,,,0.00,Wunderground v.1.15,2013-03-15 16:56:00,
2013-03-15 12:58:00,48.1,22.4,29.94,North,360,10.0,18.0,36,0.00,,,0.00,Wunderground v.1.15,2013-03-15 16:58:00,
2013-03-15 13:00:00,48.0,20.9,29.95,North,360,10.0,10.0,34,0.00,,,0.00,Wunderground v.1.15,2013-03-15 17:00:00,
2013-03-15 13:04:00,48.0,21.6,29.94,North,360,9.0,10.0,35,0.00,,,0.00,Wunderground v.1.15,2013-03-15 17:04:00,
2013-03-15 13:06:00,48.1,22.4,29.94,North,360,9.0,10.0,36,0.00,,,0.00,Wunderground v.1.15,2013-03-15 17:06:00,
2013-03-15 13:10:00,48.6,22.1,29.94,North,360,8.0,8.0,35,0.00,,,0.00,Wunderground v.1.15,2013-03-15 17:10:00,
2013-03-15 13:12:00,48.7,22.2,29.93,North,360,8.0,11.0,35,0.00,,,0.00,Wunderground v.1.15,2013-03-15 17:12:00,
2013-03-15 13:14:00,49.0,22.5,29.93,North,360,8.0,15.0,35,0.00,,,0.00,Wunderground v.1.15,2013-03-15 17:14:00,
2013-03-15 13:15:00,49.0,22.5,29.93,North,360,9.0,15.0,35,0.00,,,0.00,Wunderground v.1.15,2013-03-15 17:15:00,
2013-03-15 13:18:00,48.8,22.3,29.93,North,360,9.0,15.0,35,0.00,,,0.00,Wunderground v.1.15,2013-03-15 17:18:00,
2013-03-15 13:20:00,48.9,22.4,29.93,North,360,10.0,10.0,35,0.00,,,0.00,Wunderground v.1.15,2013-03-15 17:20:00,
2013-03-15 13:22:00,49.2,22.7,29.93,North,360,11.0,11.0,35,0.00,,,0.00,Wunderground v.1.15,2013-03-15 17:22:00,
2013-03-15 13:28:00,50.2,23.6,29.93,North,360,8.0,11.0,35,0.00,,,0.00,Wunderground v.1.15,2013-03-15 17:28:00,
2013-03-15 13:32:00,50.6,23.2,29.92,North,360,7.0,7.0,34,0.00,,,0.00,Wunderground v.1.15,2013-03-15 17:32:00,
2013-03-15 13:34:00,50.8,24.1,29.92,North,360,5.0,7.0,35,0.00,,,0.00,Wunderground v.1.15,2013-03-15 17:34:00,
2013-03-15 13:36:00,51.0,23.6,29.92,North,360,7.0,12.0,34,0.00,,,0.00,Wunderground v.1.15,2013-03-15 17:36:00,
2013-03-15 13:40:00,50.8,23.4,29.92,North,360,8.0,10.0,34,0.00,,,0.00,Wunderground v.1.15,2013-03-15 17:40:00,
2013-03-15 13:42:00,50.7,24.0,29.92,North,360,8.0,10.0,35,0.00,,,0.00,Wunderground v.1.15,2013-03-15 17:42:00,
2013-03-15 13:44:00,50.8,23.4,29.92,North,360,10.0,10.0,34,0.00,,,0.00,Wunderground v.1.15,2013-03-15 17:44:00,
2013-03-15 13:46:00,51.1,24.4,29.92,North,360,9.0,10.0,35,0.00,,,0.00,Wunderground v.1.15,2013-03-15 17:46:00,
2013-03-15 13:48:00,51.4,24.6,29.92,North,360,8.0,11.0,35,0.00,,,0.00,Wunderground v.1.15,2013-03-15 17:48:00,
2013-03-15 13:50:00,51.4,23.2,29.91,North,360,8.0,21.0,33,0.00,,,0.00,Wunderground v.1.15,2013-03-15 17:50:00,
2013-03-15 13:56:00,51.0,23.6,29.91,North,360,12.0,21.0,34,0.00,,,0.00,Wunderground v.1.15,2013-03-15 17:56:00,
2013-03-15 14:00:00,50.6,23.9,29.91,North,360,14.0,16.0,35,0.00,,,0.00,Wunderground v.1.15,2013-03-15 18:00:00,
2013-03-15 14:02:00,50.7,24.0,29.91,North,360,14.0,16.0,35,0.00,,,0.00,Wunderground v.1.15,2013-03-15 18:02:00,
2013-03-15 14:04:00,51.2,24.5,29.91,North,360,13.0,16.0,35,0.00,,,0.00,Wunderground v.1.15,2013-03-15 18:04:00,
2013-03-15 14:08:00,51.7,24.2,29.90,North,360,11.0,16.0,34,0.00,,,0.00,Wunderground v.1.15,2013-03-15 18:08:00,
2013-03-15 14:12:00,51.6,24.1,29.90,North,360,11.0,18.0,34,0.00,,,0.00,Wunderground v.1.15,2013-03-15 18:12:00,
2013-03-15 14:14:00,51.7,23.5,29.90,North,360,11.0,18.0,33,0.00,,,0.00,Wunderground v.1.15,2013-03-15 18:14:00,
2013-03-15 14:18:00,51.8,24.3,29.89,North,360,11.0,18.0,34,0.00,,,0.00,Wunderground v.1.15,2013-03-15 18:18:00,
2013-03-15 14:20:00,51.8,24.3,29.89,North,360,11.0,12.0,34,0.00,,,0.00,Wunderground v.1.15,2013-03-15 18:20:00,
2013-03-15 14:24:00,51.8,24.3,29.89,North,360,12.0,12.0,34,0.00,,,0.00,Wunderground v.1.15,2013-03-15 18:24:00,
2013-03-15 14:26:00,51.8,24.3,29.89,North,360,12.0,15.0,34,0.00,,,0.00,Wunderground v.1.15,2013-03-15 18:26:00,
2013-03-15 14:28:00,52.0,24.5,29.89,North,360,12.0,15.0,34,0.00,,,0.00,Wunderground v.1.15,2013-03-15 18:28:00,
2013-03-15 14:30:00,52.2,24.6,29.88,North,360,11.0,14.0,34,0.00,,,0.00,Wunderground v.1.15,2013-03-15 18:30:00,
2013-03-15 14:34:00,52.2,24.6,29.88,North,360,11.0,19.0,34,0.00,,,0.00,Wunderground v.1.15,2013-03-15 18:34:00,
2013-03-15 14:36:00,52.2,25.3,29.88,North,360,11.0,19.0,35,0.00,,,0.00,Wunderground v.1.15,2013-03-15 18:36:00,
2013-03-15 14:40:00,52.5,26.3,29.87,North,360,12.0,12.0,36,0.00,,,0.00,Wunderground v.1.15,2013-03-15 18:40:00,
2013-03-15 14:42:00,52.6,25.7,29.87,North,360,11.0,13.0,35,0.00,,,0.00,Wunderground v.1.15,2013-03-15 18:42:00,
2013-03-15 14:46:00,52.4,25.5,29.87,North,360,12.0,17.0,35,0.00,,,0.00,Wunderground v.1.15,2013-03-15 18:46:00,
2013-03-15 14:48:00,52.3,25.4,29.87,North,360,12.0,17.0,35,0.00,,,0.00,Wunderground v.1.15,2013-03-15 18:48:00,
2013-03-15 14:50:00,52.3,25.4,29.87,North,360,13.0,14.0,35,0.00,,,0.00,Wunderground v.1.15,2013-03-15 18:50:00,
2013-03-15 14:52:00,52.6,25.7,29.87,North,360,13.0,14.0,35,0.00,,,0.00,Wunderground v.1.15,2013-03-15 18:52:00,
2013-03-15 14:56:00,52.6,25.7,29.86,North,360,13.0,14.0,35,0.00,,,0.00,Wunderground v.1.15,2013-03-15 18:56:00,
2013-03-15 14:58:00,52.7,25.8,29.86,North,360,12.0,14.0,35,0.00,,,0.00,Wunderground v.1.15,2013-03-15 18:58:00,
2013-03-15 15:00:00,52.8,25.9,29.86,North,360,11.0,17.0,35,0.00,,,0.00,Wunderground v.1.15,2013-03-15 19:00:00,
2013-03-15 15:02:00,52.9,26.0,29.86,North,360,12.0,17.0,35,0.00,,,0.00,Wunderground v.1.15,2013-03-15 19:02:00,
2013-03-15 15:04:00,52.7,25.8,29.86,North,360,12.0,17.0,35,0.00,,,0.00,Wunderground v.1.15,2013-03-15 19:04:00,
2013-03-15 15:06:00,52.6,25.7,29.86,North,360,12.0,17.0,35,0.00,,,0.00,Wunderground v.1.15,2013-03-15 19:06:00,
2013-03-15 15:08:00,52.6,26.4,29.86,North,360,13.0,17.0,36,0.00,,,0.00,Wunderground v.1.15,2013-03-15 19:08:00,
2013-03-15 15:10:00,52.6,26.4,29.85,North,360,13.0,16.0,36,0.00,,,0.00,Wunderground v.1.15,2013-03-15 19:10:00,
2013-03-15 15:14:00,52.4,26.2,29.85,North,360,12.0,16.0,36,0.00,,,0.00,Wunderground v.1.15,2013-03-15 19:14:00,
2013-03-15 15:16:00,52.6,26.4,29.85,North,360,11.0,16.0,36,0.00,,,0.00,Wunderground v.1.15,2013-03-15 19:16:00,
2013-03-15 15:18:00,52.9,26.6,29.85,North,360,10.0,16.0,36,0.00,,,0.00,Wunderground v.1.15,2013-03-15 19:18:00,
2013-03-15 15:22:00,53.0,26.0,29.85,North,360,11.0,15.0,35,0.00,,,0.00,Wunderground v.1.15,2013-03-15 19:22:00,
2013-03-15 15:24:00,53.1,26.8,29.85,North,360,11.0,18.0,36,0.00,,,0.00,Wunderground v.1.15,2013-03-15 19:24:00,
2013-03-15 15:28:00,53.3,27.0,29.85,North,360,13.0,18.0,36,0.00,,,0.00,Wunderground v.1.15,2013-03-15 19:28:00,
2013-03-15 15:30:00,53.4,27.1,29.84,North,360,13.0,13.0,36,0.00,,,0.00,Wunderground v.1.15,2013-03-15 19:30:00,
2013-03-15 15:36:00,53.6,27.3,29.84,North,360,12.0,16.0,36,0.00,,,0.00,Wunderground v.1.15,2013-03-15 19:36:00,
2013-03-15 15:38:00,53.7,27.4,29.84,North,360,11.0,16.0,36,0.00,,,0.00,Wunderground v.1.15,2013-03-15 19:38:00,
2013-03-15 15:44:00,54.1,27.7,29.84,North,360,9.0,12.0,36,0.00,,,0.00,Wunderground v.1.15,2013-03-15 19:44:00,
2013-03-15 15:46:00,54.2,28.5,29.83,North,360,10.0,15.0,37,0.00,,,0.00,Wunderground v.1.15,2013-03-15 19:46:00,
2013-03-15 15:50:00,54.1,27.7,29.83,North,360,11.0,16.0,36,0.00,,,0.00,Wunderground v.1.15,2013-03-15 19:50:00,
2013-03-15 15:52:00,54.1,27.7,29.83,North,360,12.0,16.0,36,0.00,,,0.00,Wunderground v.1.15,2013-03-15 19:52:00,
2013-03-15 15:56:00,54.6,28.2,29.83,North,360,12.0,16.0,36,0.00,,,0.00,Wunderground v.1.15,2013-03-15 19:56:00,
2013-03-15 15:58:00,54.7,28.2,29.82,North,360,11.0,17.0,36,0.00,,,0.00,Wunderground v.1.15,2013-03-15 19:58:00,
2013-03-15 16:02:00,55.3,28.8,29.82,North,360,11.0,13.0,36,0.00,,,0.00,Wunderground v.1.15,2013-03-15 20:02:00,
2013-03-15 16:04:00,55.5,29.0,29.82,North,360,10.0,13.0,36,0.00,,,0.00,Wunderground v.1.15,2013-03-15 20:04:00,
2013-03-15 16:06:00,55.6,29.0,29.82,North,360,10.0,19.0,36,0.00,,,0.00,Wunderground v.1.15,2013-03-15 20:06:00,
2013-03-15 16:10:00,55.3,29.4,29.82,North,360,10.0,11.0,37,0.00,,,0.00,Wunderground v.1.15,2013-03-15 20:10:00,
2013-03-15 16:12:00,55.2,28.7,29.82,North,360,10.0,11.0,36,0.00,,,0.00,Wunderground v.1.15,2013-03-15 20:12:00,
2013-03-15 16:18:00,55.6,29.7,29.82,North,360,8.0,11.0,37,0.00,,,0.00,Wunderground v.1.15,2013-03-15 20:18:00,
2013-03-15 16:20:00,55.7,29.8,29.82,North,360,8.0,8.0,37,0.00,,,0.00,Wunderground v.1.15,2013-03-15 20:20:00,
2013-03-15 16:24:00,55.8,29.2,29.81,North,360,9.0,10.0,36,0.00,,,0.00,Wunderground v.1.15,2013-03-15 20:24:00,
2013-03-15 16:26:00,55.8,29.2,29.81,North,360,9.0,10.0,36,0.00,,,0.00,Wunderground v.1.15,2013-03-15 20:26:00,
2013-03-15 16:28:00,55.8,29.9,29.81,North,360,10.0,12.0,37,0.00,,,0.00,Wunderground v.1.15,2013-03-15 20:28:00,
2013-03-15 16:32:00,55.6,29.7,29.81,North,360,11.0,12.0,37,0.00,,,0.00,Wunderground v.1.15,2013-03-15 20:32:00,
2013-03-15 16:34:00,55.7,29.8,29.81,North,360,11.0,17.0,37,0.00,,,0.00,Wunderground v.1.15,2013-03-15 20:34:00,
2013-03-15 16:36:00,55.5,29.0,29.81,North,360,12.0,17.0,36,0.00,,,0.00,Wunderground v.1.15,2013-03-15 20:36:00,
2013-03-15 16:40:00,55.4,29.5,29.81,North,360,12.0,12.0,37,0.00,,,0.00,Wunderground v.1.15,2013-03-15 20:40:00,
2013-03-15 16:42:00,55.7,29.8,29.81,North,360,11.0,12.0,37,0.00,,,0.00,Wunderground v.1.15,2013-03-15 20:42:00,
2013-03-15 16:48:00,55.5,29.6,29.80,North,360,13.0,17.0,37,0.00,,,0.00,Wunderground v.1.15,2013-03-15 20:48:00,
2013-03-15 16:50:00,55.6,29.7,29.80,North,360,14.0,21.0,37,0.00,,,0.00,Wunderground v.1.15,2013-03-15 20:50:00,
2013-03-15 16:54:00,55.5,30.3,29.80,North,360,16.0,21.0,38,0.00,,,0.00,Wunderground v.1.15,2013-03-15 20:54:00,
2013-03-15 16:58:00,55.8,29.9,29.80,North,360,14.0,21.0,37,0.00,,,0.00,Wunderground v.1.15,2013-03-15 20:58:00,
2013-03-15 17:04:00,56.5,30.5,29.80,North,360,11.0,17.0,37,0.00,,,0.00,Wunderground v.1.15,2013-03-15 21:04:00,
2013-03-15 17:08:00,56.4,30.4,29.80,North,360,11.0,17.0,37,0.00,,,0.00,Wunderground v.1.15,2013-03-15 21:08:00,
2013-03-15 17:10:00,56.6,30.6,29.80,North,360,12.0,12.0,37,0.00,,,0.00,Wunderground v.1.15,2013-03-15 21:10:00,
2013-03-15 17:16:00,56.7,30.7,29.79,North,360,12.0,15.0,37,0.00,,,0.00,Wunderground v.1.15,2013-03-15 21:16:00,
2013-03-15 17:18:00,56.8,30.8,29.79,North,360,11.0,15.0,37,0.00,,,0.00,Wunderground v.1.15,2013-03-15 21:18:00,
2013-03-15 17:20:00,57.0,31.0,29.79,North,360,11.0,15.0,37,0.00,,,0.00,Wunderground v.1.15,2013-03-15 21:20:00,
2013-03-15 17:22:00,57.0,31.0,29.79,North,360,10.0,15.0,37,0.00,,,0.00,Wunderground v.1.15,2013-03-15 21:22:00,
2013-03-15 17:28:00,57.3,31.9,29.79,North,360,10.0,15.0,38,0.00,,,0.00,Wunderground v.1.15,2013-03-15 21:28:00,
2013-03-15 17:30:00,57.5,31.4,29.79,North,360,9.0,12.0,37,0.00,,,0.00,Wunderground v.1.15,2013-03-15 21:30:00,
2013-03-15 17:34:00,57.5,32.1,29.79,North,360,9.0,17.0,38,0.00,,,0.00,Wunderground v.1.15,2013-03-15 21:34:00,
2013-03-15 17:36:00,57.2,31.1,29.79,North,360,10.0,17.0,37,0.00,,,0.00,Wunderground v.1.15,2013-03-15 21:36:00,
2013-03-15 17:38:00,57.1,31.0,29.79,North,360,10.0,17.0,37,0.00,,,0.00,Wunderground v.1.15,2013-03-15 21:38:00,
2013-03-15 17:42:00,57.0,31.6,29.78,North,360,11.0,12.0,38,0.00,,,0.00,Wunderground v.1.15,2013-03-15 21:42:00,
2013-03-15 17:46:00,57.0,31.6,29.78,North,360,12.0,16.0,38,0.00,,,0.00,Wunderground v.1.15,2013-03-15 21:46:00,
2013-03-15 17:48:00,57.0,31.6,29.78,North,360,12.0,16.0,38,0.00,,,0.00,Wunderground v.1.15,2013-03-15 21:48:00,
2013-03-15 17:50:00,57.0,31.6,29.78,North,360,12.0,13.0,38,0.00,,,0.00,Wunderground v.1.15,2013-03-15 21:50:00,
2013-03-15 17:54:00,57.2,31.8,29.78,North,360,13.0,17.0,38,0.00,,,0.00,Wunderground v.1.15,2013-03-15 21:54:00,
2013-03-15 17:58:00,57.2,31.8,29.78,North,360,12.0,17.0,38,0.00,,,0.00,Wunderground v.1.15,2013-03-15 21:58:00,
2013-03-15 18:02:00,57.4,32.0,29.78,North,360,11.0,12.0,38,0.00,,,0.00,Wunderground v.1.15,2013-03-15 22:02:00,
2013-03-15 18:04:00,57.5,32.1,29.77,North,360,11.0,12.0,38,0.00,,,0.00,Wunderground v.1.15,2013-03-15 22:04:00,
2013-03-15 18:08:00,57.6,32.2,29.77,North,360,10.0,13.0,38,0.00,,,0.00,Wunderground v.1.15,2013-03-15 22:08:00,
2013-03-15 18:10:00,57.6,32.2,29.77,North,360,9.0,10.0,38,0.00,,,0.00,Wunderground v.1.15,2013-03-15 22:10:00,
2013-03-15 18:12:00,57.6,32.2,29.77,North,360,9.0,10.0,38,0.00,,,0.00,Wunderground v.1.15,2013-03-15 22:12:00,
2013-03-15 18:16:00,57.5,32.1,29.77,North,360,8.0,10.0,38,0.00,,,0.00,Wunderground v.1.15,2013-03-15 22:16:00,
2013-03-15 18:18:00,57.1,31.7,29.77,North,360,7.0,10.0,38,0.00,,,0.00,Wunderground v.1.15,2013-03-15 22:18:00,
2013-03-15 18:24:00,56.5,31.8,29.77,North,360,6.0,13.0,39,0.00,,,0.00,Wunderground v.1.15,2013-03-15 22:24:00,
2013-03-15 18:26:00,56.4,31.7,29.77,North,360,7.0,13.0,39,0.00,,,0.00,Wunderground v.1.15,2013-03-15 22:26:00,
2013-03-15 18:28:00,56.4,31.7,29.77,North,360,7.0,13.0,39,0.00,,,0.00,Wunderground v.1.15,2013-03-15 22:28:00,
2013-03-15 18:30:00,56.4,32.4,29.77,North,360,8.0,9.0,40,0.00,,,0.00,Wunderground v.1.15,2013-03-15 22:30:00,
2013-03-15 18:32:00,56.4,32.4,29.77,North,360,8.0,9.0,40,0.00,,,0.00,Wunderground v.1.15,2013-03-15 22:32:00,
2013-03-15 18:34:00,56.4,32.4,29.77,North,360,7.0,9.0,40,0.00,,,0.00,Wunderground v.1.15,2013-03-15 22:34:00,
2013-03-15 18:40:00,56.5,32.4,29.77,North,360,5.0,5.0,40,0.00,,,0.00,Wunderground v.1.15,2013-03-15 22:40:00,
2013-03-15 18:42:00,56.5,32.4,29.77,North,360,5.0,9.0,40,0.00,,,0.00,Wunderground v.1.15,2013-03-15 22:42:00,
2013-03-15 18:44:00,56.5,33.1,29.77,North,360,5.0,9.0,41,0.00,,,0.00,Wunderground v.1.15,2013-03-15 22:44:00,
2013-03-15 18:46:00,56.4,33.0,29.77,North,360,5.0,13.0,41,0.00,,,0.00,Wunderground v.1.15,2013-03-15 22:46:00,
2013-03-15 18:50:00,56.3,33.5,29.77,North,360,6.0,10.0,42,0.00,,,0.00,Wunderground v.1.15,2013-03-15 22:50:00,
2013-03-15 18:56:00,56.2,33.4,29.77,North,360,8.0,10.0,42,0.00,,,0.00,Wunderground v.1.15,2013-03-15 22:56:00,
2013-03-15 18:58:00,56.2,33.4,29.77,North,360,7.0,10.0,42,0.00,,,0.00,Wunderground v.1.15,2013-03-15 22:58:00,
2013-03-15 19:00:00,56.2,33.4,29.77,North,360,7.0,7.0,42,0.00,,,0.00,Wunderground v.1.15,2013-03-15 23:00:00,
2013-03-15 19:02:00,56.2,33.4,29.77,North,360,7.0,7.0,42,0.00,,,0.00,Wunderground v.1.15,2013-03-15 23:02:00,
2013-03-15 19:06:00,56.2,33.4,29.77,North,360,6.0,8.0,42,0.00,,,0.00,Wunderground v.1.15,2013-03-15 23:06:00,
2013-03-15 19:10:00,56.2,33.4,29.77,North,360,6.0,6.0,42,0.00,,,0.00,Wunderground v.1.15,2013-03-15 23:10:00,
2013-03-15 19:14:00,56.1,33.3,29.77,North,360,7.0,7.0,42,0.00,,,0.00,Wunderground v.1.15,2013-03-15 23:14:00,
2013-03-15 19:20:00,56.2,33.4,29.77,North,360,7.0,7.0,42,0.00,,,0.00,Wunderground v.1.15,2013-03-15 23:20:00,
2013-03-15 19:24:00,56.2,33.4,29.77,North,360,6.0,7.0,42,0.00,,,0.00,Wunderground v.1.15,2013-03-15 23:24:00,
2013-03-15 19:26:00,56.2,33.4,29.77,North,360,6.0,7.0,42,0.00,,,0.00,Wunderground v.1.15,2013-03-15 23:26:00,
2013-03-15 19:28:00,56.2,33.4,29.77,North,360,5.0,11.0,42,0.00,,,0.00,Wunderground v.1.15,2013-03-15 23:28:00,
2013-03-15 19:30:00,56.2,33.4,29.78,North,360,5.0,5.0,42,0.00,,,0.00,Wunderground v.1.15,2013-03-15 23:30:00,
2013-03-15 19:32:00,56.2,34.0,29.77,North,360,5.0,5.0,43,0.00,,,0.00,Wunderground v.1.15,2013-03-15 23:32:00,
2013-03-15 19:37:00,56.3,34.1,29.78,North,360,3.0,9.0,43,0.00,,,0.00,Wunderground v.1.15,2013-03-15 23:37:00,
2013-03-15 19:40:00,56.4,34.2,29.78,North,360,3.0,3.0,43,0.00,,,0.00,Wunderground v.1.15,2013-03-15 23:40:00,
2013-03-15 19:44:00,56.4,34.2,29.78,North,360,5.0,6.0,43,0.00,,,0.00,Wunderground v.1.15,2013-03-15 23:44:00,
2013-03-15 19:46:00,56.4,34.2,29.78,North,360,5.0,6.0,43,0.00,,,0.00,Wunderground v.1.15,2013-03-15 23:46:00,
2013-03-15 19:50:00,56.4,34.2,29.78,North,360,5.0,5.0,43,0.00,,,0.00,Wunderground v.1.15,2013-03-15 23:50:00,
2013-03-15 19:54:00,56.4,34.7,29.78,North,360,4.0,6.0,44,0.00,,,0.00,Wunderground v.1.15,2013-03-15 23:54:00,
2013-03-15 19:56:00,56.4,34.2,29.78,North,360,4.0,6.0,43,0.00,,,0.00,Wunderground v.1.15,2013-03-15 23:56:00,
2013-03-15 19:58:00,56.3,34.1,29.78,North,360,4.0,10.0,43,0.00,,,0.00,Wunderground v.1.15,2013-03-15 23:58:00,
2013-03-15 20:02:00,56.3,34.1,29.78,North,360,4.0,5.0,43,0.00,,,0.00,Wunderground v.1.15,2013-03-16 00:02:00,
2013-03-15 20:04:00,56.3,34.1,29.78,North,360,4.0,5.0,43,0.00,,,0.00,Wunderground v.1.15,2013-03-16 00:04:00,
2013-03-15 20:06:00,56.3,34.1,29.78,North,360,4.0,10.0,43,0.00,,,0.00,Wunderground v.1.15,2013-03-16 00:06:00,
2013-03-15 20:10:00,56.3,34.1,29.79,North,360,4.0,4.0,43,0.00,,,0.00,Wunderground v.1.15,2013-03-16 00:10:00,
2013-03-15 20:12:00,56.3,34.6,29.79,North,360,4.0,4.0,44,0.00,,,0.00,Wunderground v.1.15,2013-03-16 00:12:00,
2013-03-15 20:15:00,56.3,34.6,29.78,North,360,3.0,4.0,44,0.00,,,0.00,Wunderground v.1.15,2013-03-16 00:15:00,
2013-03-15 20:18:00,56.2,35.1,29.79,North,360,2.0,4.0,45,0.00,,,0.00,Wunderground v.1.15,2013-03-16 00:18:00,
2013-03-15 20:24:00,56.1,34.5,29.78,North,360,2.0,3.0,44,0.00,,,0.00,Wunderground v.1.15,2013-03-16 00:24:00,
2013-03-15 20:26:00,56.1,34.5,29.78,North,360,2.0,3.0,44,0.00,,,0.00,Wunderground v.1.15,2013-03-16 00:26:00,
2013-03-15 20:28:00,56.0,34.4,29.78,North,360,2.0,3.0,44,0.00,,,0.00,Wunderground v.1.15,2013-03-16 00:28:00,
2013-03-15 20:30:00,56.0,34.4,29.78,North,360,2.0,6.0,44,0.00,,,0.00,Wunderground v.1.15,2013-03-16 00:30:00,
2013-03-15 20:32:00,56.0,34.4,29.78,North,360,2.0,6.0,44,0.00,,,0.00,Wunderground v.1.15,2013-03-16 00:32:00,
2013-03-15 20:34:00,56.0,34.9,29.78,North,360,2.0,6.0,45,0.00,,,0.00,Wunderground v.1.15,2013-03-16 00:34:00,
2013-03-15 20:38:00,56.0,34.9,29.78,North,360,3.0,6.0,45,0.00,,,0.00,Wunderground v.1.15,2013-03-16 00:38:00,
2013-03-15 20:40:00,56.0,34.4,29.78,North,360,4.0,5.0,44,0.00,,,0.00,Wunderground v.1.15,2013-03-16 00:40:00,
2013-03-15 20:42:00,56.0,34.9,29.79,North,360,3.0,5.0,45,0.00,,,0.00,Wunderground v.1.15,2013-03-16 00:42:00,
2013-03-15 20:46:00,56.0,34.9,29.79,North,360,4.0,5.0,45,0.00,,,0.00,Wunderground v.1.15,2013-03-16 00:46:00,
2013-03-15 20:48:00,56.0,34.9,29.79,North,360,3.0,5.0,45,0.00,,,0.00,Wunderground v.1.15,2013-03-16 00:48:00,
2013-03-15 20:50:00,55.9,34.8,29.79,North,360,3.0,6.0,45,0.00,,,0.00,Wunderground v.1.15,2013-03-16 00:50:00,
2013-03-15 20:52:00,55.9,34.8,29.78,North,360,4.0,6.0,45,0.00,,,0.00,Wunderground v.1.15,2013-03-16 00:52:00,
2013-03-15 20:56:00,55.9,34.8,29.78,North,360,4.0,6.0,45,0.00,,,0.00,Wunderground v.1.15,2013-03-16 00:56:00,
2013-03-15 20:58:00,55.8,34.8,29.78,North,360,4.0,6.0,45,0.00,,,0.00,Wunderground v.1.15,2013-03-16 00:58:00,
2013-03-15 20:59:00,55.8,34.8,29.78,North,360,3.0,4.0,45,0.00,,,0.00,Wunderground v.1.15,2013-03-16 00:59:00,
2013-03-15 21:02:00,55.8,34.8,29.78,North,360,3.0,4.0,45,0.00,,,0.00,Wunderground v.1.15,2013-03-16 01:02:00,
2013-03-15 21:04:00,55.8,34.8,29.78,North,360,4.0,4.0,45,0.00,,,0.00,Wunderground v.1.15,2013-03-16 01:04:00,
2013-03-15 21:10:00,55.7,34.7,29.79,North,360,4.0,6.0,45,0.00,,,0.00,Wunderground v.1.15,2013-03-16 01:10:00,
2013-03-15 21:16:00,55.6,35.1,29.79,North,360,4.0,6.0,46,0.00,,,0.00,Wunderground v.1.15,2013-03-16 01:16:00,
2013-03-15 21:18:00,55.6,35.1,29.80,North,360,4.0,6.0,46,0.00,,,0.00,Wunderground v.1.15,2013-03-16 01:18:00,
2013-03-15 21:19:00,55.5,35.0,29.80,North,360,4.0,7.0,46,0.00,,,0.00,Wunderground v.1.15,2013-03-16 01:19:00,
2013-03-15 21:24:00,55.5,34.5,29.80,North,360,5.0,7.0,45,0.00,,,0.00,Wunderground v.1.15,2013-03-16 01:24:00,
2013-03-15 21:26:00,55.5,34.5,29.80,North,360,5.0,7.0,45,0.00,,,0.00,Wunderground v.1.15,2013-03-16 01:26:00,
2013-03-15 21:28:00,55.4,34.4,29.80,North,360,6.0,7.0,45,0.00,,,0.00,Wunderground v.1.15,2013-03-16 01:28:00,
2013-03-15 21:29:00,55.4,34.9,29.80,North,360,6.0,6.0,46,0.00,,,0.00,Wunderground v.1.15,2013-03-16 01:29:00,
2013-03-15 21:34:00,55.4,34.9,29.80,North,360,5.0,7.0,46,0.00,,,0.00,Wunderground v.1.15,2013-03-16 01:34:00,
2013-03-15 21:38:00,55.4,34.9,29.80,North,360,6.0,7.0,46,0.00,,,0.00,Wunderground v.1.15,2013-03-16 01:38:00,
2013-03-15 21:42:00,55.3,34.9,29.80,North,360,6.0,6.0,46,0.00,,,0.00,Wunderground v.1.15,2013-03-16 01:42:00,
2013-03-15 21:44:00,55.4,35.5,29.80,North,360,6.0,6.0,47,0.00,,,0.00,Wunderground v.1.15,2013-03-16 01:44:00,
2013-03-15 21:46:00,55.3,34.9,29.80,North,360,6.0,6.0,46,0.00,,,0.00,Wunderground v.1.15,2013-03-16 01:46:00,
2013-03-15 21:49:00,55.3,35.9,29.80,North,360,5.0,5.0,48,0.00,,,0.00,Wunderground v.1.15,2013-03-16 01:49:00,
2013-03-15 21:52:00,55.4,35.5,29.80,North,360,4.0,5.0,47,0.00,,,0.00,Wunderground v.1.15,2013-03-16 01:52:00,
2013-03-15 21:54:00,55.3,35.9,29.80,North,360,4.0,5.0,48,0.00,,,0.00,Wunderground v.1.15,2013-03-16 01:54:00,
2013-03-15 21:55:00,55.3,35.9,29.80,North,360,3.0,5.0,48,0.00,,,0.00,Wunderground v.1.15,2013-03-16 01:55:00,
2013-03-15 21:57:00,55.3,35.9,29.80,North,360,3.0,5.0,48,0.00,,,0.00,Wunderground v.1.15,2013-03-16 01:57:00,
2013-03-15 22:02:00,55.3,35.4,29.80,North,360,3.0,3.0,47,0.00,,,0.00,Wunderground v.1.15,2013-03-16 02:02:00,
2013-03-15 22:04:00,55.3,35.9,29.80,North,360,3.0,5.0,48,0.00,,,0.00,Wunderground v.1.15,2013-03-16 02:04:00,
2013-03-15 22:06:00,55.2,34.8,29.80,North,360,4.0,5.0,46,0.00,,,0.00,Wunderground v.1.15,2013-03-16 02:06:00,
2013-03-15 22:08:00,55.2,35.8,29.80,North,360,4.0,5.0,48,0.00,,,0.00,Wunderground v.1.15,2013-03-16 02:08:00,
2013-03-15 22:12:00,55.2,35.3,29.80,North,360,4.0,5.0,47,0.00,,,0.00,Wunderground v.1.15,2013-03-16 02:12:00,
2013-03-15 22:18:00,55.2,35.8,29.80,North,360,4.0,6.0,48,0.00,,,0.00,Wunderground v.1.15,2013-03-16 02:18:00,
2013-03-15 22:22:00,55.2,35.8,29.80,North,360,5.0,5.0,48,0.00,,,0.00,Wunderground v.1.15,2013-03-16 02:22:00,
2013-03-15 22:24:00,55.1,35.7,29.80,North,360,5.0,5.0,48,0.00,,,0.00,Wunderground v.1.15,2013-03-16 02:24:00,
2013-03-15 22:28:00,55.1,35.7,29.80,North,360,3.0,5.0,48,0.00,,,0.00,Wunderground v.1.15,2013-03-16 02:28:00,
2013-03-15 22:30:00,55.1,35.2,29.80,North,360,3.0,5.0,47,0.00,,,0.00,Wunderground v.1.15,2013-03-16 02:30:00,
2013-03-15 22:34:00,55.0,35.1,29.80,North,360,3.0,5.0,47,0.00,,,0.00,Wunderground v.1.15,2013-03-16 02:34:00,
2013-03-15 22:36:00,55.0,35.7,29.80,North,360,4.0,5.0,48,0.00,,,0.00,Wunderground v.1.15,2013-03-16 02:36:00,
2013-03-15 22:38:00,55.0,35.7,29.80,North,360,4.0,5.0,48,0.00,,,0.00,Wunderground v.1.15,2013-03-16 02:38:00,
2013-03-15 22:40:00,55.1,36.3,29.80,North,360,4.0,4.0,49,0.00,,,0.00,Wunderground v.1.15,2013-03-16 02:40:00,
2013-03-15 22:44:00,55.1,36.3,29.80,North,360,3.0,4.0,49,0.00,,,0.00,Wunderground v.1.15,2013-03-16 02:44:00,
2013-03-15 22:46:00,55.2,36.4,29.80,North,360,2.0,4.0,49,0.00,,,0.00,Wunderground v.1.15,2013-03-16 02:46:00,
2013-03-15 22:52:00,55.1,36.3,29.81,North,360,3.0,3.0,49,0.00,,,0.00,Wunderground v.1.15,2013-03-16 02:52:00,
2013-03-15 22:54:00,55.1,35.7,29.80,North,360,3.0,3.0,48,0.00,,,0.00,Wunderground v.1.15,2013-03-16 02:54:00,
2013-03-15 22:56:00,55.1,35.2,29.80,North,360,3.0,4.0,47,0.00,,,0.00,Wunderground v.1.15,2013-03-16 02:56:00,
2013-03-15 23:00:00,55.2,35.8,29.80,North,360,3.0,3.0,48,0.00,,,0.00,Wunderground v.1.15,2013-03-16 03:00:00,
2013-03-15 23:02:00,55.1,36.3,29.80,North,360,3.0,3.0,49,0.00,,,0.00,Wunderground v.1.15,2013-03-16 03:02:00,
2013-03-15 23:06:00,55.1,36.3,29.80,North,360,3.0,3.0,49,0.00,,,0.00,Wunderground v.1.15,2013-03-16 03:06:00,
2013-03-15 23:08:00,55.0,36.2,29.80,North,360,3.0,3.0,49,0.00,,,0.00,Wunderground v.1.15,2013-03-16 03:08:00,
2013-03-15 23:10:00,54.9,36.6,29.80,North,360,3.0,3.0,50,0.00,,,0.00,Wunderground v.1.15,2013-03-16 03:10:00,
2013-03-15 23:12:00,54.9,37.1,29.80,North,360,3.0,3.0,51,0.00,,,0.00,Wunderground v.1.15,2013-03-16 03:12:00,
2013-03-15 23:14:00,54.8,36.5,29.80,North,360,3.0,3.0,50,0.00,,,0.00,Wunderground v.1.15,2013-03-16 03:14:00,
2013-03-15 23:16:00,54.8,36.0,29.80,North,360,3.0,3.0,49,0.00,,,0.00,Wunderground v.1.15,2013-03-16 03:16:00,
2013-03-15 23:18:00,54.7,35.9,29.80,North,360,3.0,3.0,49,0.00,,,0.00,Wunderground v.1.15,2013-03-16 03:18:00,
2013-03-15 23:22:00,54.6,36.3,29.80,North,360,3.0,3.0,50,0.00,,,0.00,Wunderground v.1.15,2013-03-16 03:22:00,
2013-03-15 23:26:00,54.6,35.8,29.80,North,360,2.0,3.0,49,0.00,,,0.00,Wunderground v.1.15,2013-03-16 03:26:00,
2013-03-15 23:32:00,54.6,36.8,29.80,North,360,2.0,3.0,51,0.00,,,0.00,Wunderground v.1.15,2013-03-16 03:32:00,
2013-03-15 23:34:00,54.6,36.8,29.79,North,360,2.0,3.0,51,0.00,,,0.00,Wunderground v.1.15,2013-03-16 03:34:00,
2013-03-15 23:36:00,54.6,36.8,29.79,North,360,2.0,3.0,51,0.00,,,0.00,Wunderground v.1.15,2013-03-16 03:36:00,
2013-03-15 23:38:00,54.6,35.8,29.80,North,360,2.0,3.0,49,0.00,,,0.00,Wunderground v.1.15,2013-03-16 03:38:00,
2013-03-15 23:42:00,54.6,36.8,29.80,North,360,2.0,3.0,51,0.00,,,0.00,Wunderground v.1.15,2013-03-16 03:42:00,
2013-03-15 23:44:00,54.6,36.8,29.79,North,360,2.0,3.0,51,0.00,,,0.00,Wunderground v.1.15,2013-03-16 03:44:00,
2013-03-15 23:46:00,54.6,36.3,29.79,North,360,2.0,3.0,50,0.00,,,0.00,Wunderground v.1.15,2013-03-16 03:46:00,
2013-03-15 23:51:00,54.5,36.7,29.79,North,360,1.0,2.0,51,0.00,,,0.00,Wunderground v.1.15,2013-03-16 03:51:00,
2013-03-15 23:54:00,54.4,36.1,29.79,North,360,1.0,3.0,50,0.00,,,0.00,Wunderground v.1.15,2013-03-16 03:54:00,
2013-03-15 23:58:00,54.1,35.3,29.79,North,360,2.0,4.0,49,0.00,,,0.00,Wunderground v.1.15,2013-03-16 03:58:00,